Home   Weather   Nantes   Past weeks

Flag for France Past Weather in Nantes, Pays de la Loire, France — Yesterday and Last 2 Weeks

Now
37 °F

Clear.


Feels Like: 31 °F
Forecast: 32 / 52 °F
Wind: 8 mph from Northeast

Location: Nantes Airport

Current Time: Dec 3, 2016 at 1:27:01 am

Latest Report: Dec 3, 2016 at 1:00 am


Visibility: 4 mi

Pressure: 30.09 "Hg

Humidity: 93%

Dew Point: 36 °F

Location of NantesLocation

Past Weather in Nantes — Graph

°F

Nantes Temperature Yesterday

Maximum temperature yesterday: 43 °F (at 3:30 pm)
Minimum temperature yesterday: 30 °F (at 8:30 am)
Average temperature yesterday: 37 °F

High & Low Weather Summary for the Past Weeks

 TemperatureHumidityPressure
High57 °F (Nov 20, 3:00 am)100% (Nov 19, 1:00 am)30.51 "Hg (Nov 19, 1:00 am)
Low30 °F (Nov 29, 8:00 am)42% (Nov 28, 6:00 pm)29.09 "Hg (Nov 21, 8:00 am)
Average46 °F83%29.91 "Hg
* Reported Nov 18 12:00 am — Dec 3 12:00 am, Nantes, Weather by CustomWeather, © 2016

Note: Actual official high and low records may vary slightly from our data, if they occured in-between our weather recording intervals... More about our weather records

Advertising

Nantes Weather History for the Previous 24 Hours

Scroll right to see more
 ConditionsComfort  
Time TempWeatherWind HumidityBarometerVisibility
12:00 am
Sat, Dec 3
37 °FClear.8 mph93%30.09 "Hg4 mi
11:30 pm
Fri, Dec 2
39 °FClear.9 mph81%30.09 "Hg4 mi
11:00 pm37 °FClear.8 mph87%30.09 "Hg4 mi
10:30 pm39 °FClear.8 mph81%30.12 "Hg5 mi
10:00 pm39 °FClear.8 mph87%30.12 "Hg5 mi
9:30 pm39 °FClear.8 mph87%30.12 "Hg5 mi
9:00 pm39 °FClear.8 mph87%30.12 "Hg5 mi
8:30 pm39 °FClear.8 mph87%30.12 "Hg4 mi
8:00 pm39 °FClear.7 mph87%30.12 "Hg4 mi
7:30 pm41 °FClear.9 mph81%30.12 "Hg5 mi
7:00 pm41 °FClear.8 mph81%30.15 "Hg5 mi
6:00 pm41 °FClear.7 mph81%30.15 "Hg5 mi
5:30 pm41 °FClear.6 mph87%30.15 "Hg6 mi
5:00 pm41 °FClear.8 mph87%30.15 "Hg5 mi
4:30 pm41 °FClear.10 mph87%30.15 "Hg5 mi
4:00 pm43 °FPassing clouds.10 mph81%30.15 "Hg5 mi
3:30 pm43 °FPassing clouds.10 mph81%30.15 "Hg5 mi
3:00 pm41 °FPartly sunny.14 mph87%30.15 "Hg5 mi
2:30 pm41 °FLow clouds.10 mph87%30.18 "Hg4 mi
2:00 pm39 °FLow clouds.9 mph93%30.18 "Hg4 mi
1:30 pm37 °FFog.10 mph93%30.21 "Hg3 mi
1:00 pm37 °FFog.12 mph93%30.21 "Hg3 mi
12:30 pm36 °FFog.12 mph93%30.21 "Hg3 mi
12:00 pm36 °FFog.13 mph93%30.24 "Hg2 mi
11:30 am34 °FFog.13 mph100%30.24 "Hg1 mi
11:00 am34 °FFog.14 mph100%30.24 "Hg1 mi
10:30 am32 °FFog.14 mph100%30.24 "Hg1 mi
10:00 am32 °FFog.10 mph100%30.24 "Hg1 mi
9:30 am32 °FIce fog.10 mph100%30.24 "Hg1 mi
9:00 am30 °FIce fog.7 mph100%30.24 "Hg1 mi
8:30 am30 °FIce fog.7 mph93%30.24 "Hg2 mi
8:00 am32 °FIce fog.9 mph87%30.24 "Hg3 mi
7:30 am32 °FIce fog.6 mph87%30.24 "Hg3 mi
7:00 am32 °FIce fog.12 mph87%30.24 "Hg3 mi
6:30 am32 °FClear.6 mph87%30.24 "Hg4 mi
6:00 am32 °FClear.8 mph87%30.24 "Hg4 mi
5:30 am34 °FClear.8 mph81%30.24 "Hg4 mi
5:00 am34 °FClear.7 mph87%30.24 "Hg4 mi
4:30 am34 °FClear.5 mph87%30.24 "Hg4 mi
4:00 am34 °FClear.3 mph87%30.24 "Hg4 mi
3:30 am36 °FClear.5 mph81%30.24 "Hg4 mi
3:00 am36 °FClear.6 mph81%30.27 "Hg4 mi
2:30 am36 °FClear.5 mph81%30.27 "Hg5 mi
2:00 am36 °FClear.7 mph81%30.27 "Hg5 mi
1:30 am36 °FClear.6 mph87%30.27 "Hg4 mi
1:00 am37 °FClear.8 mph81%30.27 "Hg4 mi
Weather by CustomWeather, © 2016

See weather overviewHow to use our weather pages